#timestamp,LO_Frequency,Hit,StdDev 
1456804815.4,286046994.0,N
1456804835.2,286046997.5,N
1456804855.1,286046997.7,N
1456804856.0,286046997.7,N
1456804875.8,286046992.1,N
1456804895.6,286046990.7,N
1456804915.5,286046991.5,N
1456804935.3,286046988.5,N
1456804955.1,286046988.5,N
1456804975.8,286046987.3,N
1456804995.7,286046989.8,N
1456805015.5,286046987.0,N
1456805035.3,286046991.1,N
1456805055.2,286046988.7,N
1456805075.9,286046987.6,N
1456805095.7,286046983.7,N
1456805115.6,286046986.7,N
1456805135.4,286046985.0,N
1456805155.2,286046984.1,N
1456805175.1,286046982.2,N
1456805176.0,286046982.2,N
1456805195.8,286046981.6,Y
1456805215.6,286046988.9,P
1456805235.5,286046990.9,P
1456805255.3,286046988.7,P
1456805275.1,286046989.5,Y
1456805295.9,286046998.8,P
1456805315.7,286046999.6,N
1456805335.5,286046993.6,N
1456805355.4,286046995.1,N
1456805375.2,286046997.9,N
1456805395.0,286046995.9,N
1456805395.9,286046995.9,N
1456805415.8,286046998.0,N
1456805435.6,286046992.1,N
1456805455.4,286046995.8,N
1456805475.2,286046993.6,N
1456805495.1,286046995.0,N
1456805496.0,286046995.0,N
1456805515.8,286046996.4,N
1456805535.6,286046995.8,N
1456805555.5,286046996.0,N
1456805575.3,286046993.3,N
1456805595.1,286046995.5,N
1456805615.9,286046997.1,N
1456805635.7,286046995.9,N
1456805655.5,286046992.7,Y
1456805675.4,286046994.9,P
1456805695.2,286046997.1,P
1456805715.0,286046998.0,N
1456805715.9,286046998.0,N
1456805735.8,286046996.2,Y
1456805755.6,286046996.5,P
1456805775.4,286046995.8,P
1456805795.3,286046995.7,P
1456805815.1,286046998.0,Y
1456805835.8,286046996.7,P
1456805855.7,286046997.2,P
1456805875.5,286046999.5,N
1456805895.3,286046998.4,N
1456805915.1,286047001.2,N
1456805916.0,286047001.2,N
1456805935.8,286046999.4,N
1456805955.7,286047001.2,N
1456805975.5,286047001.0,N
1456805995.3,286046995.4,N
1456806015.2,286046996.3,N
1456806035.9,286046995.8,N
1456806055.7,286046996.3,N
1456806075.5,286046995.6,N
1456806095.4,286046998.9,N
1456806115.2,286046997.6,N
1456806135.0,286046996.4,N
1456806135.9,286046996.4,N
1456806155.8,286046997.7,N
1456806175.6,286046994.8,N
1456806195.4,286046994.0,N
1456806215.3,286046995.0,N
1456806235.1,286046993.7,N
1456806236.0,286046993.7,N
1456806255.8,286046992.7,Y
1456806275.7,286046994.0,P
1456806295.5,286046992.2,P
1456806315.3,286046991.7,P
1456806335.2,286046996.2,N
1456806355.9,286046992.7,Y
1456806375.8,286047000.5,P
1456806395.6,286047000.8,N
1456806415.4,286046996.6,N
1456806435.2,286046997.4,N
1456806455.1,286046999.4,N
1456806456.0,286046999.4,N
1456806475.8,286046999.6,N
1456806495.6,286047000.3,N
1456806515.5,286047000.9,N
1456806535.3,286047001.9,N
1456806555.1,286047004.4,N
1456806575.9,286047001.8,N
1456806595.7,286047001.4,N
1456806615.5,286047002.3,N
1456806635.4,286046999.0,N
1456806655.2,286046995.1,N
1456806675.0,286046996.6,N
1456806675.9,286046996.6,N
1456806695.8,286047000.3,N
1456806715.6,286046999.4,N
1456806735.4,286046999.3,N
1456806755.2,286047002.3,N
1456806775.1,286047000.2,N
1456806776.0,286047000.2,N
1456806795.8,286047000.2,N
1456806815.6,286047000.6,N
1456806835.5,286047000.2,N
1456806855.3,286047002.8,N
1456806875.1,286047001.2,N
1456806895.9,286046996.9,N
1456806915.7,286046997.7,N
1456806935.5,286046995.4,N
1456806955.4,286046996.3,N
1456806975.2,286046996.4,N
1456806995.0,286046995.2,N
1456806995.9,286046995.2,N
1456807015.8,286047001.0,N
1456807035.6,286047000.7,N
1456807055.4,286046999.5,N
1456807075.3,286047000.9,N
1456807095.1,286046999.4,N
1456807096.0,286046999.4,N
1456807115.8,286046998.3,N
1456807135.6,286046998.9,N
1456807155.5,286046998.6,N
1456807175.3,286047001.1,N
1456807195.1,286046997.8,N
1456807215.9,286046994.0,N
1456807235.7,286046993.0,Y
1456807255.5,286046992.7,P
1456807275.4,286046987.6,P
1456807295.2,286046983.8,P
1456807315.0,286046982.9,Y
1456807316.0,286046982.9,P
1456807335.8,286046990.6,N
1456807355.6,286046988.5,P
1456807375.5,286046988.6,Y
1456807395.3,286047001.1,P
1456807415.1,286046997.1,N
1456807435.8,286046997.7,N
1456807455.7,286046997.2,N
1456807475.5,286046998.1,N
1456807495.3,286046998.4,N
1456807515.2,286047000.8,N
1456807535.9,286047000.9,N
1456807555.7,286047004.4,N
1456807575.6,286047002.6,N
1456807595.4,286047001.0,N
1456807615.2,286047000.4,N
1456807635.0,286047001.0,N
1456807636.0,286047001.0,N
1456807655.8,286047002.6,N
1456807675.6,286047004.2,N
1456807695.4,286047003.7,N
1456807715.3,286047006.0,N
1456807735.1,286047003.3,N
1456807755.8,286047006.7,N
1456807775.7,286047006.1,N
1456807795.5,286047010.6,N
1456807815.3,286047009.1,N
1456807835.2,286047009.8,N
1456807855.9,286047017.2,Y
1456807875.7,286047015.6,P
1456807895.6,286047015.2,N
1456807915.4,286047018.6,N
1456807935.2,286047019.4,Y
1456807955.1,286047004.6,P
1456807956.0,286047004.6,N
1456807975.8,286047008.7,N
1456807995.6,286047013.5,Y
1456808015.5,286047008.4,P
1456808035.3,286047007.9,P
1456808055.1,286047006.9,P
1456808075.9,286047006.9,Y
1456808095.7,286047001.3,P
1456808115.5,286047005.2,N
1456808135.4,286047005.1,N
1456808155.2,286047007.3,Y
1456808175.0,286047003.6,P
1456808175.9,286047003.6,P
1456808195.8,286047004.4,P
1456808215.6,286047002.9,Y
1456808235.4,286047002.8,P
1456808255.3,286046998.4,N
1456808275.1,286046995.0,N
1456808295.8,286046996.8,N
1456808315.7,286046994.9,N
1456808335.5,286046997.7,N
1456808355.3,286047000.7,N
1456808375.2,286046997.8,N
1456808395.9,286046997.1,N
